Time,TemperatureF,DewpointF,PressureIn,WindDirection,WindDirectionDegrees,WindSpeedMPH,WindSpeedGustMPH,Humidity,HourlyPrecipIn,Conditions,Clouds,dailyrainin,SoftwareType,DateUTC
2013-02-14 00:14:00,41.1,36.0,29.72,SSW,200,0.0,-999.0,81,-99.99,,,0.00,weatherlink.com 1.10,2013-02-14 05:14:00,
2013-02-14 00:29:00,40.5,35.0,29.73,South,182,0.0,-999.0,81,-99.99,,,0.00,weatherlink.com 1.10,2013-02-14 05:29:00,
2013-02-14 00:45:00,40.1,35.0,29.74,South,184,0.0,-999.0,83,-99.99,,,0.00,weatherlink.com 1.10,2013-02-14 05:45:00,
2013-02-14 00:59:00,39.6,35.0,29.75,South,184,0.0,-999.0,82,-99.99,,,0.00,weatherlink.com 1.10,2013-02-14 05:59:00,
2013-02-14 01:15:00,39.2,35.0,29.75,South,184,0.0,-999.0,85,-99.99,,,0.00,weatherlink.com 1.10,2013-02-14 06:15:00,
2013-02-14 01:29:00,38.8,35.0,29.75,South,184,0.0,-999.0,85,-99.99,,,0.00,weatherlink.com 1.10,2013-02-14 06:29:00,
2013-02-14 01:44:00,38.0,35.0,29.75,South,184,0.0,-999.0,87,-99.99,,,0.00,weatherlink.com 1.10,2013-02-14 06:44:00,
2013-02-14 02:00:00,37.6,34.0,29.76,South,184,0.0,-999.0,88,-99.99,,,0.00,weatherlink.com 1.10,2013-02-14 07:00:00,
2013-02-14 02:15:00,37.2,34.0,29.76,South,184,0.0,-999.0,88,-99.99,,,0.00,weatherlink.com 1.10,2013-02-14 07:15:00,
2013-02-14 02:30:00,36.9,34.0,29.76,South,185,0.0,-999.0,88,-99.99,,,0.00,weatherlink.com 1.10,2013-02-14 07:30:00,
2013-02-14 02:45:00,37.0,34.0,29.77,South,185,0.0,-999.0,87,-99.99,,,0.00,weatherlink.com 1.10,2013-02-14 07:45:00,
2013-02-14 03:00:00,37.0,33.0,29.77,South,185,0.0,-999.0,86,-99.99,,,0.00,weatherlink.com 1.10,2013-02-14 08:00:00,
2013-02-14 03:15:00,36.8,33.0,29.78,South,185,0.0,-999.0,86,-99.99,,,0.00,weatherlink.com 1.10,2013-02-14 08:15:00,
2013-02-14 03:30:00,36.9,-99.9,29.79,South,184,0.0,-999.0,-999,-99.99,,,0.00,weatherlink.com 1.10,2013-02-14 08:30:00,
2013-02-14 03:45:00,36.6,33.0,29.80,South,184,0.0,-999.0,86,-99.99,,,0.00,weatherlink.com 1.10,2013-02-14 08:45:00,
2013-02-14 04:00:00,36.3,33.0,29.80,South,171,0.0,-999.0,87,-99.99,,,0.00,weatherlink.com 1.10,2013-02-14 09:00:00,
2013-02-14 04:15:00,35.8,33.0,29.80,South,171,0.0,-999.0,88,-99.99,,,0.00,weatherlink.com 1.10,2013-02-14 09:15:00,
2013-02-14 04:30:00,35.2,32.0,29.81,South,171,0.0,-999.0,89,-99.99,,,0.00,weatherlink.com 1.10,2013-02-14 09:30:00,
2013-02-14 04:45:00,34.4,32.0,29.82,South,171,0.0,-999.0,91,-99.99,,,0.00,weatherlink.com 1.10,2013-02-14 09:45:00,
2013-02-14 05:00:00,33.8,32.0,29.82,South,171,0.0,-999.0,92,-99.99,,,0.00,weatherlink.com 1.10,2013-02-14 10:00:00,
2013-02-14 05:15:00,33.2,31.0,29.83,South,171,0.0,-999.0,92,-99.99,,,0.00,weatherlink.com 1.10,2013-02-14 10:15:00,
2013-02-14 05:30:00,32.7,31.0,29.84,South,171,0.0,-999.0,92,-99.99,,,0.00,weatherlink.com 1.10,2013-02-14 10:30:00,
2013-02-14 05:45:00,32.5,31.0,29.84,South,171,0.0,-999.0,93,-99.99,,,0.00,weatherlink.com 1.10,2013-02-14 10:45:00,
2013-02-14 06:00:00,32.1,30.0,29.85,South,171,0.0,-999.0,93,-99.99,,,0.00,weatherlink.com 1.10,2013-02-14 11:00:00,
2013-02-14 06:15:00,31.8,30.0,29.86,South,171,0.0,-999.0,93,-99.99,,,0.00,weatherlink.com 1.10,2013-02-14 11:15:00,
2013-02-14 06:30:00,31.5,30.0,29.86,South,171,0.0,-999.0,94,-99.99,,,0.00,weatherlink.com 1.10,2013-02-14 11:30:00,
2013-02-14 06:45:00,31.2,30.0,29.87,South,171,0.0,-999.0,94,-99.99,,,0.00,weatherlink.com 1.10,2013-02-14 11:45:00,
2013-02-14 07:00:00,30.9,29.0,29.88,South,171,0.0,-999.0,94,-99.99,,,0.00,weatherlink.com 1.10,2013-02-14 12:00:00,
2013-02-14 07:15:00,30.7,30.0,29.89,South,171,0.0,-999.0,95,-99.99,,,0.00,weatherlink.com 1.10,2013-02-14 12:15:00,
2013-02-14 07:30:00,30.9,30.0,29.89,South,171,0.0,-999.0,95,-99.99,,,0.00,weatherlink.com 1.10,2013-02-14 12:30:00,
2013-02-14 07:45:00,32.7,32.0,29.90,South,171,0.0,-999.0,96,-99.99,,,0.00,weatherlink.com 1.10,2013-02-14 12:45:00,
2013-02-14 08:00:00,36.3,35.0,29.90,South,171,0.0,-999.0,96,-99.99,,,0.00,weatherlink.com 1.10,2013-02-14 13:00:00,
2013-02-14 08:15:00,37.2,35.0,29.91,South,171,0.0,-999.0,93,-99.99,,,0.00,weatherlink.com 1.10,2013-02-14 13:15:00,
2013-02-14 08:30:00,38.0,36.0,29.92,South,171,0.0,-999.0,91,-99.99,,,0.00,weatherlink.com 1.10,2013-02-14 13:30:00,
2013-02-14 08:45:00,39.9,37.0,29.93,South,171,0.0,-999.0,89,-99.99,,,0.00,weatherlink.com 1.10,2013-02-14 13:45:00,
2013-02-14 09:00:00,39.8,35.0,29.95,South,171,0.0,-999.0,84,-99.99,,,0.00,weatherlink.com 1.10,2013-02-14 14:00:00,
2013-02-14 09:15:00,41.1,36.0,29.95,South,171,0.0,-999.0,81,-99.99,,,0.00,weatherlink.com 1.10,2013-02-14 14:15:00,
2013-02-14 09:30:00,41.3,35.0,29.94,NNE,17,0.0,-999.0,79,-99.99,,,0.00,weatherlink.com 1.10,2013-02-14 14:30:00,
2013-02-14 09:45:00,42.1,33.0,29.94,West,281,0.0,-999.0,70,-99.99,,,0.00,weatherlink.com 1.10,2013-02-14 14:45:00,
2013-02-14 10:00:00,43.5,34.0,29.93,West,274,0.0,-999.0,69,-99.99,,,0.00,weatherlink.com 1.10,2013-02-14 15:00:00,
2013-02-14 10:15:00,43.9,33.0,29.92,South,181,0.0,-999.0,65,-99.99,,,0.00,weatherlink.com 1.10,2013-02-14 15:15:00,
2013-02-14 10:31:00,44.3,34.0,29.93,NNE,27,0.0,-999.0,66,-99.99,,,0.00,weatherlink.com 1.10,2013-02-14 15:31:00,
2013-02-14 10:45:00,45.1,33.0,29.94,NE,42,0.0,-999.0,62,-99.99,,,0.00,weatherlink.com 1.10,2013-02-14 15:45:00,
2013-02-14 11:00:00,45.7,33.0,29.94,NNE,27,0.0,-999.0,61,-99.99,,,0.00,weatherlink.com 1.10,2013-02-14 16:00:00,
2013-02-14 11:15:00,46.0,32.0,29.95,East,89,0.0,-999.0,59,-99.99,,,0.00,weatherlink.com 1.10,2013-02-14 16:15:00,
2013-02-14 11:30:00,46.7,32.0,29.95,East,90,0.0,-999.0,58,-99.99,,,0.00,weatherlink.com 1.10,2013-02-14 16:30:00,
2013-02-14 11:45:00,47.0,32.0,29.94,East,89,0.0,-999.0,57,-99.99,,,0.00,weatherlink.com 1.10,2013-02-14 16:45:00,
2013-02-14 12:00:00,48.2,32.0,29.93,East,89,0.0,-999.0,53,-99.99,,,0.00,weatherlink.com 1.10,2013-02-14 17:00:00,
2013-02-14 12:15:00,47.7,32.0,29.93,East,99,0.0,-999.0,54,-99.99,,,0.00,weatherlink.com 1.10,2013-02-14 17:15:00,
2013-02-14 12:46:00,49.1,33.0,29.92,NE,42,0.0,-999.0,55,-99.99,,,0.00,weatherlink.com 1.10,2013-02-14 17:46:00,
2013-02-14 13:01:00,50.4,33.0,29.92,South,189,0.0,-999.0,51,-99.99,,,0.00,weatherlink.com 1.10,2013-02-14 18:01:00,
2013-02-14 13:16:00,51.0,34.0,29.92,SE,145,0.0,-999.0,52,-99.99,,,0.00,weatherlink.com 1.10,2013-02-14 18:16:00,
2013-02-14 13:31:00,50.1,32.0,29.91,South,176,0.0,-999.0,51,-99.99,,,0.00,weatherlink.com 1.10,2013-02-14 18:31:00,
2013-02-14 13:46:00,50.7,33.0,29.90,East,93,0.0,-999.0,51,-99.99,,,0.00,weatherlink.com 1.10,2013-02-14 18:46:00,
2013-02-14 14:01:00,51.1,33.0,29.90,ESE,123,0.0,-999.0,50,-99.99,,,0.00,weatherlink.com 1.10,2013-02-14 19:01:00,
2013-02-14 14:16:00,51.7,33.0,29.89,ESE,104,0.0,-999.0,49,-99.99,,,0.00,weatherlink.com 1.10,2013-02-14 19:16:00,
2013-02-14 14:31:00,50.7,31.0,29.89,South,175,0.0,-999.0,47,-99.99,,,0.00,weatherlink.com 1.10,2013-02-14 19:31:00,
2013-02-14 14:46:00,50.7,30.0,29.88,SSW,206,0.0,-999.0,46,-99.99,,,0.00,weatherlink.com 1.10,2013-02-14 19:46:00,
2013-02-14 15:01:00,51.3,31.0,29.89,SE,134,0.0,-999.0,47,-99.99,,,0.00,weatherlink.com 1.10,2013-02-14 20:01:00,
2013-02-14 15:16:00,51.4,32.0,29.89,ENE,78,0.0,-999.0,48,-99.99,,,0.00,weatherlink.com 1.10,2013-02-14 20:16:00,
2013-02-14 15:31:00,50.7,31.0,29.89,South,172,0.0,-999.0,47,-99.99,,,0.00,weatherlink.com 1.10,2013-02-14 20:31:00,
2013-02-14 15:46:00,50.4,31.0,29.90,SE,144,0.0,-999.0,48,-99.99,,,0.00,weatherlink.com 1.10,2013-02-14 20:46:00,
2013-02-14 16:01:00,50.5,31.0,29.89,SW,220,0.0,-999.0,48,-99.99,,,0.00,weatherlink.com 1.10,2013-02-14 21:01:00,
2013-02-14 16:16:00,49.9,30.0,29.89,SSE,162,0.0,-999.0,47,-99.99,,,0.00,weatherlink.com 1.10,2013-02-14 21:16:00,
2013-02-14 16:31:00,49.9,31.0,29.89,SE,134,0.0,-999.0,48,-99.99,,,0.00,weatherlink.com 1.10,2013-02-14 21:31:00,
2013-02-14 16:46:00,50.1,31.0,29.89,SE,145,0.0,-999.0,49,-99.99,,,0.00,weatherlink.com 1.10,2013-02-14 21:46:00,
2013-02-14 17:01:00,49.8,32.0,29.89,SE,145,0.0,-999.0,51,-99.99,,,0.00,weatherlink.com 1.10,2013-02-14 22:01:00,
2013-02-14 17:16:00,49.4,32.0,29.89,SE,145,0.0,-999.0,52,-99.99,,,0.00,weatherlink.com 1.10,2013-02-14 22:16:00,
2013-02-14 17:34:00,48.8,34.0,29.89,SE,145,0.0,-999.0,56,-99.99,,,0.00,weatherlink.com 1.10,2013-02-14 22:34:00,
2013-02-14 17:46:00,47.7,34.0,29.90,SE,145,0.0,-999.0,59,-99.99,,,0.00,weatherlink.com 1.10,2013-02-14 22:46:00,
2013-02-14 18:01:00,46.7,34.0,29.90,SE,145,0.0,-999.0,62,-99.99,,,0.00,weatherlink.com 1.10,2013-02-14 23:01:00,
2013-02-14 18:16:00,45.5,34.0,29.91,SE,145,0.0,-999.0,65,-99.99,,,0.00,weatherlink.com 1.10,2013-02-14 23:16:00,
2013-02-14 18:31:00,43.6,33.0,29.91,SE,145,0.0,-999.0,66,-99.99,,,0.00,weatherlink.com 1.10,2013-02-14 23:31:00,
2013-02-14 18:46:00,42.6,33.0,29.90,SE,145,0.0,-999.0,70,-99.99,,,0.00,weatherlink.com 1.10,2013-02-14 23:46:00,
2013-02-14 19:01:00,41.9,34.0,29.91,SE,145,0.0,-999.0,73,-99.99,,,0.00,weatherlink.com 1.10,2013-02-15 00:01:00,
2013-02-14 19:16:00,41.1,34.0,29.92,SE,145,0.0,-999.0,75,-99.99,,,0.00,weatherlink.com 1.10,2013-02-15 00:16:00,
2013-02-14 19:31:00,40.2,34.0,29.92,SE,145,0.0,-999.0,77,-99.99,,,0.00,weatherlink.com 1.10,2013-02-15 00:31:00,
2013-02-14 19:46:00,39.5,33.0,29.92,SE,145,0.0,-999.0,78,-99.99,,,0.00,weatherlink.com 1.10,2013-02-15 00:46:00,
2013-02-14 20:01:00,38.9,33.0,29.93,SE,145,0.0,-999.0,80,-99.99,,,0.00,weatherlink.com 1.10,2013-02-15 01:01:00,
2013-02-14 20:16:00,38.3,33.0,29.94,SE,145,0.0,-999.0,82,-99.99,,,0.00,weatherlink.com 1.10,2013-02-15 01:16:00,
2013-02-14 20:31:00,37.8,33.0,29.94,SE,145,0.0,-999.0,83,-99.99,,,0.00,weatherlink.com 1.10,2013-02-15 01:31:00,
2013-02-14 20:46:00,37.3,33.0,29.95,SE,145,0.0,-999.0,84,-99.99,,,0.00,weatherlink.com 1.10,2013-02-15 01:46:00,
2013-02-14 21:01:00,36.8,33.0,29.95,SE,145,0.0,-999.0,85,-99.99,,,0.00,weatherlink.com 1.10,2013-02-15 02:01:00,
2013-02-14 21:16:00,36.5,33.0,29.94,SE,145,0.0,-999.0,87,-99.99,,,0.00,weatherlink.com 1.10,2013-02-15 02:16:00,
2013-02-14 21:31:00,36.0,33.0,29.94,SE,145,0.0,-999.0,87,-99.99,,,0.00,weatherlink.com 1.10,2013-02-15 02:31:00,
2013-02-14 21:46:00,35.9,33.0,29.96,SE,145,0.0,-999.0,88,-99.99,,,0.00,weatherlink.com 1.10,2013-02-15 02:46:00,
2013-02-14 22:01:00,35.6,33.0,29.97,SE,145,0.0,-999.0,89,-99.99,,,0.00,weatherlink.com 1.10,2013-02-15 03:01:00,
2013-02-14 22:16:00,35.3,32.0,29.96,SE,145,0.0,-999.0,89,-99.99,,,0.00,weatherlink.com 1.10,2013-02-15 03:16:00,
2013-02-14 22:31:00,34.9,32.0,29.97,SE,145,0.0,-999.0,90,-99.99,,,0.00,weatherlink.com 1.10,2013-02-15 03:31:00,
2013-02-14 22:46:00,34.6,32.0,29.96,SE,145,0.0,-999.0,90,-99.99,,,0.00,weatherlink.com 1.10,2013-02-15 03:46:00,
2013-02-14 23:01:00,34.1,32.0,29.96,SE,145,0.0,-999.0,90,-99.99,,,0.00,weatherlink.com 1.10,2013-02-15 04:01:00,
2013-02-14 23:16:00,33.7,31.0,29.96,SE,145,0.0,-999.0,91,-99.99,,,0.00,weatherlink.com 1.10,2013-02-15 04:16:00,
2013-02-14 23:31:00,33.4,31.0,29.95,SE,145,0.0,-999.0,91,-99.99,,,0.00,weatherlink.com 1.10,2013-02-15 04:31:00,
2013-02-14 23:46:00,32.9,31.0,29.95,SE,145,0.0,-999.0,91,-99.99,,,0.00,weatherlink.com 1.10,2013-02-15 04:46:00,